Temperature
17 20 20 19 18 18 18 18 18 19 18 17 18 18 18 16 15 15 14 13 13 13 13 12 12 12 12 12 12 12 13 13 13 13 13 13 12 12 11 10 10 10 10 10
19 19 17 17 17 17 17 18 19 18 17 16 17 17 17 15 14 13 12 12 12 12 12 12 12 12 12 11 11 11 12 12 13 13 13 13 12 11 10 10 10 10 10 10
18 17 16 17 17 17 18 17 17 17 17 16 15 18 16 15 13 12 11 11 11 10 11 11 11 11 11 11 10 11 11 12 12 12 12 12 11 10 10 10 10 10 10 10
17 16 16 17 16 16 17 16 15 15 16 17 15 17 18 14 13 12 10 10 10 9 9 9 9 10 10 11 11 10 10 11 11 12 12 11 10 10 10 9 9 9 9 9
16 15 15 15 15 14 15 15 15 14 15 15 15 15 18 14 12 11 10 9 9 9 8 8 8 8 8 9 10 9 9 10 10 11 11 10 10 10 9 9 9 9 9 9
15 14 14 14 14 13 14 15 16 13 14 15 15 15 17 13 11 10 10 9 9 8 8 8 7 7 7 7 7 8 8 9 9 9 10 10 10 10 9 9 9 8 8 8
16 15 14 13 15 15 15 15 16 16 16 16 14 14 15 10 9 9 9 9 8 8 8 7 7 6 6 6 6 6 7 7 8 8 9 9 9 9 9 9 8 8 8 8
15 16 13 13 13 13 13 14 14 14 15 16 15 14 14 10 9 9 9 9 8 7 7 7 6 6 6 5 5 5 6 6 7 7 8 8 9 9 9 9 9 8 8 8
14 14 13 11 11 12 13 13 12 12 13 13 14 14 12 10 10 10 9 9 8 7 6 6 6 5 5 5 4 4 4 5 6 7 7 8 8 8 8 8 8 8 8 7
12 12 13 11 12 11 12 12 12 12 12 13 14 15 14 10 9 10 9 8 7 6 6 5 5 5 4 4 3 3 3 4 5 6 6 6 7 7 7 8 7 7 7 7
10 11 12 12 12 11 11 11 11 12 11 11 11 13 10 9 9 9 8 7 7 6 5 5 5 5 4 3 2 2 2 2 3 4 4 5 5 5 6 6 6 6 6 5
10 10 11 11 10 9 10 10 10 10 11 11 10 11 10 10 9 8 7 7 6 6 5 5 5 5 4 3 2 1 1 1 0 1 2 2 3 3 4 4 4 4 4 4
9 10 11 12 10 9 9 9 9 9 8 8 8 10 12 10 8 7 7 6 6 5 5 5 4 4 4 2 1 0 0 -0 -1 -1 -1 -0 0 1 1 2 2 3 2 3
8 9 10 11 11 9 8 9 9 8 7 7 8 8 8 8 8 7 6 5 5 5 4 4 3 3 3 2 1 0 -0 -0 -1 -1 -1 -1 -1 -0 0 1 1 1 1 1
7 8 8 8 8 7 7 7 7 6 6 6 6 6 7 7 6 6 5 5 4 3 3 3 2 2 2 2 1 -0 -0 -0 -1 -1 -2 -2 -1 -1 -1 -1 -1 -1 -1 -1
6 6 5 6 5 5 5 6 6 5 6 6 5 6 7 5 5 4 4 3 3 2 2 1 1 0 0 0 0 -0 -1 -1 -1 -2 -3 -3 -3 -3 -3 -3 -3 -3 -3 -3
6 6 5 6 4 5 6 6 5 5 5 5 4 4 5 5 4 3 2 2 2 0 -0 -1 -1 -1 -1 -1 -1 -1 -1 -2 -2 -3 -4 -4 -4 -4 -4 -4 -4 -4 -4 -4
5 5 4 4 4 3 7 5 4 4 5 5 5 5 4 3 2 2 2 1 -0 -1 -1 -2 -2 -2 -2 -1 -1 -2 -2 -2 -3 -4 -5 -5 -5 -5 -5 -5 -5 -5 -5 -5
4 5 4 3 4 5 6 5 4 3 4 5 4 4 3 1 1 2 2 -1 -2 -2 -2 -2 -2 -2 -2 -2 -2 -3 -3 -4 -5 -5 -6 -6 -6 -6 -6 -6 -6 -6 -6 -6
3 3 4 2 2 3 6 4 3 3 4 5 3 2 0 -0 0 1 -1 -2 -2 -2 -2 -2 -2 -3 -3 -3 -4 -4 -4 -5 -6 -6 -7 -7 -7 -7 -7 -7 -7 -7 -7 -7
3 3 2 2 2 4 5 3 3 3 3 3 2 0 -1 -2 -2 -2 -2 -3 -3 -3 -3 -3 -3 -4 -4 -5 -5 -6 -6 -7 -7 -8 -8 -8 -8 -8 -8 -8 -8 -8 -8 -8
3 3 2 2 1 3 4 4 4 3 3 2 0 -2 -3 -3 -3 -3 -3 -4 -5 -5 -5 -5 -5 -5 -6 -6 -6 -7 -7 -8 -8 -9 -9 -9 -9 -9 -9 -9 -9 -9 -9 -9
3 4 4 3 4 5 4 3 3 2 1 -0 -2 -4 -4 -4 -4 -5 -5 -6 -7 -7 -7 -7 -7 -7 -7 -8 -8 -8 -9 -9 -10 -10 -10 -10 -10 -10 -10 -10 -10 -10 -10 -10
3 1 2 2 3 3 3 3 2 0 -1 -3 -4 -5 -5 -6 -6 -6 -7 -8 -8 -8 -8 -9 -9 -9 -9 -9 -10 -10 -10 -10 -11 -11 -11 -11 -11 -10 -10 -10 -10 -11 -11 -11
2 2 1 2 3 2 2 2 1 -1 -3 -4 -5 -6 -6 -7 -7 -8 -8 -9 -9 -9 -10 -10 -10 -11 -11 -11 -11 -11 -11 -11 -11 -11 -11 -11 -11 -11 -11 -11 -11 -11 -11 -11
0 1 2 3 3 2 2 1 -1 -3 -4 -6 -6 -7 -7 -8 -8 -9 -9 -10 -10 -10 -11 -11 -12 -12 -12 -12 -11 -11 -11 -11 -11 -11 -12 -12 -12 -12 -12 -11 -11 -11 -11 -11
Wind_Speed
2 3 3 4 3 4 6 9 13 11 5 8 13 15 10 9 13 16 17 19 20 21 22 22 18 11 7 8 9 10 10 9 7 6 6 5 5 5 5 4 4 5 5 5
3 1 4 4 2 4 7 11 12 7 4 9 11 11 5 11 14 15 17 20 21 22 24 24 23 17 11 10 11 11 12 11 10 7 6 5 5 5 4 3 3 3 4 3
4 4 6 4 5 8 9 8 10 14 16 6 7 3 12 10 14 16 18 19 22 22 24 24 24 23 18 12 12 11 12 11 11 9 6 5 5 5 5 6 5 4 3 3
3 5 6 5 4 6 6 6 11 15 13 7 4 4 8 8 11 16 18 20 21 22 23 23 23 24 22 18 13 13 13 12 11 10 9 10 8 8 9 6 5 5 4 4
4 5 6 5 5 6 7 11 14 12 9 8 4 6 5 6 6 14 17 19 20 21 21 22 21 21 21 21 16 14 14 14 12 11 10 10 10 8 7 7 7 6 5 4
3 1 3 4 3 2 8 12 9 4 4 5 3 5 4 4 6 12 16 18 19 19 20 20 21 21 21 21 20 17 15 15 14 12 11 11 11 10 9 9 8 7 6 5
5 3 4 5 6 4 10 9 6 5 4 3 2 7 4 9 9 12 16 17 18 19 19 21 22 23 23 23 22 21 19 17 16 14 13 12 11 11 11 10 9 8 7 6
7 3 4 6 5 6 5 4 4 6 8 10 7 7 5 9 6 10 14 16 18 19 20 21 22 22 22 23 23 23 22 20 17 16 15 14 12 10 9 10 8 7 6 5
5 6 2 3 3 4 2 2 2 6 11 10 7 4 5 5 8 16 21 23 23 23 22 22 22 22 22 22 22 23 23 22 19 17 16 14 13 10 9 7 5 4 2 1
2 7 7 5 1 2 3 2 3 4 7 10 13 12 4 5 18 26 29 27 23 21 21 22 21 22 22 21 21 22 22 22 20 17 14 10 10 8 6 4 3 2 2 2
3 5 6 5 3 5 4 2 2 5 7 8 12 10 7 11 21 27 26 24 23 21 22 23 23 22 21 20 19 19 20 21 19 14 10 7 6 5 5 4 3 2 2 3
3 4 6 6 3 2 2 1 2 7 11 11 14 13 6 16 25 26 26 25 24 23 24 26 26 25 21 18 17 17 16 16 16 13 7 2 3 4 3 3 3 3 3 4
4 4 7 3 2 3 1 2 6 9 10 12 16 15 13 27 28 26 27 27 26 28 30 30 28 25 20 16 15 14 13 12 12 10 7 3 1 2 3 3 3 4 4 4
4 5 8 10 10 6 11 15 14 11 10 13 17 23 26 27 28 28 29 29 31 32 32 31 28 25 20 17 14 12 10 9 9 8 7 5 5 3 3 4 4 4 2 2
4 5 6 11 12 11 16 18 14 11 11 11 16 22 26 26 27 29 31 33 35 34 33 30 28 24 22 20 16 10 7 6 7 6 6 5 5 4 3 4 3 3 2 2
3 3 3 6 5 8 15 15 8 6 7 12 18 24 24 25 27 29 33 34 33 31 31 31 29 26 24 22 17 9 5 4 4 4 5 5 5 5 5 4 4 2 1 2
2 2 4 4 6 10 8 2 3 6 9 12 20 22 23 30 31 32 33 30 27 29 31 30 28 24 22 19 13 5 2 3 3 4 5 6 6 5 5 4 4 3 2 2
3 3 2 5 6 4 2 4 4 9 13 18 16 17 26 30 31 30 25 23 28 30 29 26 22 20 18 12 4 3 4 4 5 6 6 7 7 6 5 4 4 3 2 2
4 3 2 2 5 10 7 3 6 12 21 12 14 26 29 31 27 20 18 25 26 27 24 21 18 15 12 7 5 5 6 6 7 7 8 8 8 8 6 4 3 2 1 1
3 3 3 2 5 5 2 3 6 12 11 10 23 27 28 28 22 18 24 27 25 24 20 17 14 12 11 10 8 8 8 8 9 8 8 8 8 7 6 5 4 3 2 1
2 3 4 6 6 8 5 5 12 10 13 23 25 25 24 19 18 22 26 24 22 20 18 14 12 12 12 11 10 10 10 10 9 8 7 7 8 7 6 5 4 4 3 2
3 3 4 4 5 6 2 10 9 14 21 22 23 21 20 20 21 21 20 19 19 17 15 13 11 12 12 12 10 10 10 10 9 8 7 7 7 7 5 5 4 4 4 3
5 4 3 6 7 10 11 13 15 16 19 20 19 19 19 18 17 17 16 15 15 15 13 12 11 11 11 12 11 11 11 10 9 8 7 7 7 7 6 5 4 4 4 4
3 3 5 7 11 13 15 15 13 13 15 17 16 15 14 14 14 14 13 13 13 13 12 11 11 11 11 11 11 11 11 10 9 8 8 7 7 7 6 5 5 4 4 4
5 4 5 8 12 12 10 10 14 13 14 14 13 11 12 12 12 12 11 12 11 11 11 10 10 10 11 11 11 12 12 11 10 9 8 8 7 7 6 6 5 6 5 6
5 6 4 5 8 10 15 16 14 11 12 12 11 11 11 10 11 11 9 10 10 10 10 10 10 10 11 11 11 12 12 11 11 9 9 8 7 7 7 7 6 4 6 9
Wind_Direction
341 262 298 342 336 318 310 300 302 308 327 317 302 305 344 61 57 51 46 40 34 31 26 23 15 355 305 263 248 245 243 234 229 227 226 224 223 220 216 214 214 216 213 212
258 270 0 319 286 286 294 297 305 313 318 313 305 305 81 83 62 52 44 37 30 23 21 20 17 10 338 292 263 250 246 241 234 233 232 230 221 218 209 195 197 207 205 201
335 16 344 314 312 311 304 304 317 314 319 286 301 249 140 96 69 51 41 32 28 21 17 13 10 7 356 323 284 265 256 247 238 230 219 207 205 209 207 203 197 197 201 194
26 12 355 340 0 340 316 340 311 306 309 300 329 280 168 123 67 40 30 26 22 19 15 12 8 4 358 344 313 285 275 260 244 231 228 224 223 223 222 214 206 205 208 207
21 9 4 12 1 335 317 312 297 294 284 275 235 244 196 127 52 29 23 20 18 15 12 9 6 0 357 353 337 306 288 275 259 245 239 235 234 234 227 220 221 224 215 214
26 40 15 346 323 315 313 303 285 227 240 242 185 252 240 91 51 24 18 16 13 10 6 4 2 358 355 354 347 330 303 285 272 258 246 237 233 227 225 226 228 227 218 206
9 84 34 355 336 346 351 337 319 299 270 265 176 267 247 114 63 30 13 8 5 3 1 360 358 354 352 349 346 338 322 297 280 266 255 246 240 235 231 230 229 228 220 208
348 342 30 18 5 328 347 347 338 311 300 300 285 262 141 122 65 17 8 2 359 358 357 355 351 347 345 344 342 338 329 312 288 269 259 255 250 246 242 233 227 222 220 209
349 310 26 28 339 318 332 43 339 286 285 285 275 261 151 135 11 359 356 357 356 353 349 345 341 339 338 338 338 337 329 317 299 276 262 257 254 248 248 239 226 208 186 176
337 292 307 341 218 57 20 1 299 286 301 298 298 296 293 39 1 356 352 347 342 338 336 334 332 331 331 331 333 336 334 323 308 289 268 259 254 242 222 199 182 152 104 36
335 280 298 316 334 324 330 307 299 284 276 287 297 315 61 17 356 346 340 337 332 328 328 327 325 324 324 325 329 335 338 335 326 307 273 241 229 212 186 154 129 84 48 16
358 301 282 291 9 331 286 317 298 295 291 276 283 293 76 350 343 338 332 329 325 323 322 322 321 320 319 321 325 332 338 342 342 340 327 268 187 168 145 116 94 65 35 12
336 285 297 266 145 113 73 266 287 294 288 275 275 282 327 334 331 331 329 326 321 318 319 320 320 317 316 317 318 325 336 340 342 343 342 346 24 80 99 91 64 45 26 354
308 253 252 285 317 320 293 284 289 292 277 283 285 299 317 324 326 328 328 323 318 317 319 319 319 317 318 317 311 312 325 334 339 344 349 358 10 18 47 62 50 39 15 356
347 273 265 275 292 290 277 282 294 281 270 279 298 309 316 324 326 325 323 321 319 319 320 321 320 318 317 318 312 300 309 332 343 349 355 355 356 2 30 56 53 39 28 23
343 282 282 275 283 294 279 289 290 269 280 291 302 308 322 321 322 322 321 319 318 321 323 321 318 316 316 316 313 299 305 344 357 1 0 358 359 5 20 31 25 19 33 62
288 281 295 277 311 297 286 53 4 317 311 311 309 314 321 321 324 323 318 318 326 326 321 317 315 312 311 312 312 304 351 23 18 13 10 6 2 2 7 12 13 18 44 67
228 231 262 291 316 272 70 59 356 323 309 311 312 324 325 320 320 315 316 336 329 323 321 319 317 314 314 320 345 61 58 43 30 22 16 8 1 359 2 8 16 17 31 64
214 228 253 279 291 283 294 60 6 329 311 322 333 326 324 323 317 317 342 337 326 324 325 325 325 325 334 2 41 57 50 39 29 20 13 6 359 356 359 9 14 6 351 19
162 220 236 239 287 280 327 40 333 309 302 352 334 327 326 325 323 326 333 329 332 335 338 343 351 8 19 26 35 43 38 31 21 11 7 5 0 358 1 5 4 355 337 340
207 206 227 243 256 270 320 340 325 314 321 328 326 326 324 320 311 311 322 333 342 348 357 11 28 34 30 27 33 36 29 19 7 1 3 7 4 358 359 354 354 344 335 323
268 243 227 229 243 270 343 323 324 314 317 321 324 324 319 314 312 319 330 341 350 357 8 19 31 34 28 25 26 26 18 4 359 1 6 7 6 2 355 349 350 347 332 310
239 246 268 235 261 305 314 305 308 315 316 321 323 322 319 318 321 331 340 349 355 3 9 16 24 28 24 19 19 16 6 359 359 4 8 7 5 5 358 352 351 345 335 325
251 235 252 269 273 287 296 305 318 322 320 320 322 324 330 331 335 341 347 352 357 3 8 11 16 18 16 13 15 11 4 0 3 9 9 8 6 5 4 357 352 345 336 334
266 231 244 262 282 297 299 313 324 321 323 324 326 336 342 339 341 346 350 355 358 1 5 8 9 10 10 11 13 9 5 2 0 5 6 3 2 355 352 352 348 335 329 325
224 219 237 283 305 305 304 319 326 323 325 325 326 335 347 350 345 349 354 356 357 358 359 360 3 6 7 9 11 9 4 3 0 356 356 354 351 347 344 338 332 330 324 324
Height
1518 1516 1513 1515 1516 1517 1516 1514 1510 1507 1508 1509 1502 1499 1500 1504 1504 1502 1501 1499 1496 1494 1492 1487 1483 1482 1481 1481 1481 1481 1481 1480 1480 1478 1476 1474 1472 1471 1469 1468 1467 1467 1467 1466
1515 1516 1520 1519 1519 1518 1515 1512 1507 1505 1508 1509 1503 1501 1503 1506 1507 1507 1505 1502 1499 1495 1491 1488 1486 1483 1482 1481 1480 1479 1479 1478 1476 1475 1473 1471 1469 1467 1466 1465 1464 1464 1464 1463
1517 1521 1522 1520 1517 1516 1513 1512 1511 1511 1508 1506 1509 1496 1502 1506 1508 1508 1507 1504 1500 1497 1493 1490 1487 1484 1482 1479 1478 1477 1476 1474 1473 1472 1470 1467 1465 1464 1463 1462 1461 1461 1461 1461
1521 1524 1523 1520 1520 1520 1514 1516 1516 1512 1510 1503 1509 1498 1493 1503 1506 1508 1507 1504 1502 1499 1496 1493 1489 1485 1482 1479 1475 1473 1473 1471 1469 1468 1466 1464 1462 1461 1461 1460 1459 1458 1458 1458
1523 1526 1524 1523 1524 1523 1518 1516 1513 1511 1509 1505 1505 1502 1488 1498 1504 1508 1508 1506 1504 1501 1499 1495 1492 1488 1484 1478 1474 1470 1469 1467 1465 1464 1462 1460 1459 1458 1457 1456 1456 1455 1455 1455
1527 1529 1528 1527 1526 1525 1521 1512 1505 1512 1506 1500 1502 1499 1485 1500 1508 1509 1509 1507 1505 1503 1500 1497 1493 1488 1483 1478 1473 1468 1465 1463 1461 1460 1458 1457 1455 1454 1453 1453 1452 1451 1451 1451
1525 1527 1529 1529 1524 1521 1520 1514 1505 1499 1495 1492 1503 1499 1490 1509 1511 1512 1511 1509 1507 1504 1501 1496 1492 1487 1482 1476 1471 1466 1462 1459 1458 1456 1454 1453 1452 1451 1450 1449 1448 1448 1448 1447
1529 1524 1530 1530 1530 1529 1525 1522 1522 1519 1505 1493 1493 1495 1495 1509 1513 1513 1512 1511 1508 1504 1500 1496 1492 1487 1482 1476 1470 1464 1459 1455 1452 1451 1450 1449 1448 1447 1447 1445 1444 1443 1443 1444
1534 1529 1530 1533 1533 1531 1526 1526 1528 1525 1512 1510 1493 1494 1501 1511 1511 1511 1508 1505 1502 1500 1498 1495 1491 1486 1480 1474 1467 1461 1454 1448 1445 1444 1444 1443 1443 1443 1442 1441 1440 1439 1439 1439
1541 1538 1530 1534 1533 1535 1533 1531 1530 1526 1519 1507 1489 1487 1491 1508 1509 1506 1504 1504 1504 1503 1499 1495 1489 1483 1477 1471 1464 1457 1449 1442 1437 1436 1436 1436 1436 1436 1436 1436 1435 1434 1433 1434
1547 1543 1534 1533 1533 1534 1535 1535 1532 1529 1527 1520 1506 1495 1509 1510 1511 1511 1510 1508 1505 1501 1496 1491 1485 1479 1473 1467 1460 1452 1444 1437 1431 1428 1427 1426 1428 1428 1429 1429 1429 1430 1429 1430
1549 1545 1538 1534 1539 1541 1538 1537 1535 1534 1525 1523 1519 1507 1510 1510 1512 1513 1510 1506 1502 1497 1492 1486 1480 1474 1468 1462 1456 1449 1441 1434 1428 1423 1421 1419 1419 1420 1421 1422 1423 1424 1424 1424
1550 1547 1537 1526 1537 1540 1540 1539 1538 1538 1537 1531 1524 1511 1505 1511 1512 1512 1509 1503 1498 1492 1486 1480 1474 1468 1462 1457 1451 1445 1439 1433 1427 1422 1419 1416 1415 1414 1415 1416 1418 1418 1419 1421
1553 1548 1543 1535 1532 1541 1540 1536 1536 1539 1536 1528 1522 1516 1515 1515 1513 1510 1506 1500 1493 1487 1481 1474 1468 1462 1457 1453 1447 1442 1436 1431 1426 1422 1418 1415 1413 1412 1411 1411 1412 1414 1415 1416
1554 1549 1548 1545 1544 1545 1541 1536 1537 1540 1537 1535 1527 1525 1520 1517 1515 1510 1504 1497 1489 1482 1475 1469 1463 1458 1453 1449 1444 1438 1433 1429 1424 1420 1417 1414 1412 1410 1408 1408 1409 1410 1411 1412
1553 1551 1552 1548 1549 1547 1540 1535 1537 1538 1537 1535 1531 1525 1523 1520 1516 1510 1502 1495 1486 1478 1472 1465 1459 1453 1448 1444 1439 1434 1430 1426 1422 1419 1415 1413 1411 1409 1407 1407 1407 1407 1409 1411
1553 1551 1548 1542 1547 1544 1531 1534 1537 1537 1536 1536 1532 1529 1523 1516 1513 1508 1499 1491 1484 1477 1470 1461 1454 1448 1442 1438 1434 1430 1427 1424 1421 1418 1415 1413 1411 1409 1407 1406 1406 1408 1410 1411
1553 1551 1551 1548 1547 1546 1534 1540 1540 1538 1535 1533 1528 1526 1523 1517 1511 1505 1495 1490 1483 1474 1465 1456 1449 1442 1438 1433 1430 1427 1425 1423 1420 1417 1415 1413 1411 1409 1407 1407 1408 1409 1411 1411
1554 1552 1551 1553 1544 1536 1534 1539 1541 1539 1532 1528 1528 1524 1519 1511 1504 1497 1493 1489 1481 1471 1462 1453 1446 1440 1435 1431 1428 1426 1424 1422 1420 1418 1416 1413 1411 1410 1409 1409 1410 1410 1411 1410
1557 1555 1552 1557 1551 1543 1533 1541 1541 1538 1526 1526 1527 1522 1516 1507 1496 1489 1489 1483 1475 1467 1459 1451 1444 1439 1435 1432 1429 1427 1424 1422 1420 1418 1416 1414 1412 1411 1410 1410 1410 1410 1409 1408
1553 1554 1555 1554 1553 1539 1538 1541 1540 1534 1530 1527 1524 1520 1515 1509 1503 1493 1485 1479 1472 1465 1457 1450 1444 1439 1435 1433 1430 1428 1425 1423 1420 1418 1416 1414 1412 1411 1410 1410 1409 1408 1407 1406
1551 1550 1552 1552 1552 1545 1540 1539 1537 1535 1530 1527 1523 1518 1512 1506 1498 1491 1484 1477 1470 1464 1457 1451 1445 1441 1437 1434 1431 1429 1426 1424 1421 1419 1417 1414 1412 1411 1409 1408 1407 1406 1405 1405
1552 1550 1547 1547 1543 1538 1538 1537 1536 1534 1529 1524 1519 1514 1508 1502 1496 1489 1483 1477 1471 1465 1459 1453 1448 1444 1440 1436 1433 1430 1428 1425 1422 1420 1418 1415 1412 1410 1408 1407 1406 1405 1404 1404
1551 1553 1551 1546 1540 1538 1536 1534 1533 1531 1526 1521 1516 1510 1505 1499 1493 1488 1482 1477 1472 1466 1461 1456 1451 1446 1442 1438 1435 1432 1429 1426 1424 1422 1419 1416 1414 1411 1409 1407 1406 1405 1404 1403
1550 1550 1548 1544 1539 1537 1533 1532 1530 1525 1521 1516 1511 1507 1502 1497 1492 1487 1482 1477 1472 1468 1463 1458 1453 1449 1445 1441 1437 1434 1431 1428 1426 1424 1421 1418 1415 1412 1410 1407 1405 1404 1403 1401
1548 1547 1545 1540 1537 1536 1532 1529 1525 1520 1516 1512 1507 1503 1499 1495 1490 1486 1482 1477 1473 1469 1464 1460 1456 1452 1448 1444 1440 1437 1433 1430 1427 1424 1422 1418 1415 1412 1410 1407 1405 1402 1400 1398